datetime,flow
1991-10-01,104.0
1991-10-02,101.0
1991-10-03,100.0
1991-10-04,98.0
1991-10-05,93.0
1991-10-06,90.0
1991-10-07,89.0
1991-10-08,88.0
1991-10-09,87.0
1991-10-10,86.0
1991-10-11,84.0
1991-10-12,83.0
1991-10-13,82.0
1991-10-14,81.0
1991-10-15,80.0
1991-10-16,78.0
1991-10-17,77.0
1991-10-18,76.0
1991-10-19,75.0
1991-10-20,75.0
1991-10-21,75.0
1991-10-22,74.0
1991-10-23,74.0
1991-10-24,76.0
1991-10-25,76.0
1991-10-26,75.0
1991-10-27,75.0
1991-10-28,75.0
1991-10-29,69.0
1991-10-30,72.0
1991-10-31,73.0
1991-11-01,73.0
1991-11-02,73.0
1991-11-03,70.0
1991-11-04,72.0
1991-11-05,75.0
1991-11-06,73.0
1991-11-07,75.0
1991-11-08,72.0
1991-11-09,71.0
1991-11-10,73.0
1991-11-11,72.0
1991-11-12,69.0
1991-11-13,68.0
1991-11-14,68.0
1991-11-15,74.0
1991-11-16,72.0
1991-11-17,72.0
1991-11-18,72.0
1991-11-19,75.0
1991-11-20,67.0
1991-11-21,72.0
1991-11-22,70.0
1991-11-23,68.0
1991-11-24,66.0
1991-11-25,66.0
1991-11-26,70.0
1991-11-27,70.0
1991-11-28,72.0
1991-11-29,72.0
1991-11-30,66.0
1991-12-01,60.0
1991-12-02,60.0
1991-12-03,60.0
1991-12-04,60.0
1991-12-05,60.0
1991-12-06,60.0
1991-12-07,62.0
1991-12-08,62.0
1991-12-09,60.0
1991-12-10,60.0
1991-12-11,60.0
1991-12-12,60.0
1991-12-13,56.0
1991-12-14,50.0
1991-12-15,46.0
1991-12-16,47.0
1991-12-17,48.0
1991-12-18,50.0
1991-12-19,50.0
1991-12-20,50.0
1991-12-21,49.0
1991-12-22,49.0
1991-12-23,48.0
1991-12-24,49.0
1991-12-25,48.0
1991-12-26,46.0
1991-12-27,44.0
1991-12-28,44.0
1991-12-29,44.0
1991-12-30,45.0
1991-12-31,42.0
1992-01-01,38.0
1992-01-02,35.0
1992-01-03,38.0
1992-01-04,40.0
1992-01-05,42.0
1992-01-06,42.0
1992-01-07,43.0
1992-01-08,45.0
1992-01-09,47.0
1992-01-10,42.0
1992-01-11,40.0
1992-01-12,40.0
1992-01-13,40.0
1992-01-14,40.0
1992-01-15,38.0
1992-01-16,40.0
1992-01-17,40.0
1992-01-18,40.0
1992-01-19,39.0
1992-01-20,38.0
1992-01-21,39.0
1992-01-22,39.0
1992-01-23,39.0
1992-01-24,39.0
1992-01-25,41.0
1992-01-26,41.0
1992-01-27,40.0
1992-01-28,40.0
1992-01-29,40.0
1992-01-30,40.0
1992-01-31,40.0
1992-02-01,42.0
1992-02-02,42.0
1992-02-03,43.0
1992-02-04,44.0
1992-02-05,44.0
1992-02-06,44.0
1992-02-07,46.0
1992-02-08,47.0
1992-02-09,47.0
1992-02-10,47.0
1992-02-11,46.0
1992-02-12,46.0
1992-02-13,46.0
1992-02-14,47.0
1992-02-15,47.0
1992-02-16,47.0
1992-02-17,45.0
1992-02-18,44.0
1992-02-19,44.0
1992-02-20,44.0
1992-02-21,46.0
1992-02-22,46.0
1992-02-23,46.0
1992-02-24,46.0
1992-02-25,46.0
1992-02-26,48.0
1992-02-27,50.0
1992-02-28,52.0
1992-02-29,54.0
1992-03-01,58.0
1992-03-02,60.0
1992-03-03,60.0
1992-03-04,54.0
1992-03-05,52.0
1992-03-06,56.0
1992-03-07,60.0
1992-03-08,60.0
1992-03-09,56.0
1992-03-10,52.0
1992-03-11,52.0
1992-03-12,56.0
1992-03-13,60.0
1992-03-14,64.0
1992-03-15,66.0
1992-03-16,68.0
1992-03-17,66.0
1992-03-18,62.0
1992-03-19,60.0
1992-03-20,62.0
1992-03-21,62.0
1992-03-22,62.0
1992-03-23,62.0
1992-03-24,60.0
1992-03-25,58.0
1992-03-26,58.0
1992-03-27,59.0
1992-03-28,59.0
1992-03-29,61.0
1992-03-30,62.0
1992-03-31,63.0
1992-04-01,64.0
1992-04-02,64.0
1992-04-03,68.0
1992-04-04,75.0
1992-04-05,80.0
1992-04-06,86.0
1992-04-07,97.0
1992-04-08,113.0
1992-04-09,132.0
1992-04-10,154.0
1992-04-11,179.0
1992-04-12,214.0
1992-04-13,226.0
1992-04-14,224.0
1992-04-15,203.0
1992-04-16,181.0
1992-04-17,181.0
1992-04-18,197.0
1992-04-19,171.0
1992-04-20,153.0
1992-04-21,147.0
1992-04-22,152.0
1992-04-23,142.0
1992-04-24,150.0
1992-04-25,176.0
1992-04-26,209.0
1992-04-27,261.0
1992-04-28,349.0
1992-04-29,443.0
1992-04-30,512.0
1992-05-01,546.0
1992-05-02,537.0
1992-05-03,513.0
1992-05-04,483.0
1992-05-05,558.0
1992-05-06,602.0
1992-05-07,607.0
1992-05-08,595.0
1992-05-09,622.0
1992-05-10,490.0
1992-05-11,398.0
1992-05-12,404.0
1992-05-13,483.0
1992-05-14,575.0
1992-05-15,628.0
1992-05-16,641.0
1992-05-17,707.0
1992-05-18,747.0
1992-05-19,771.0
1992-05-20,994.0
1992-05-21,939.0
1992-05-22,786.0
1992-05-23,728.0
1992-05-24,764.0
1992-05-25,735.0
1992-05-26,865.0
1992-05-27,1000.0
1992-05-28,825.0
1992-05-29,704.0
1992-05-30,660.0
1992-05-31,603.0
1992-06-01,616.0
1992-06-02,607.0
1992-06-03,613.0
1992-06-04,705.0
1992-06-05,938.0
1992-06-06,901.0
1992-06-07,877.0
1992-06-08,761.0
1992-06-09,667.0
1992-06-10,751.0
1992-06-11,861.0
1992-06-12,1000.0
1992-06-13,1160.0
1992-06-14,1080.0
1992-06-15,939.0
1992-06-16,796.0
1992-06-17,721.0
1992-06-18,866.0
1992-06-19,1000.0
1992-06-20,1060.0
1992-06-21,1060.0
1992-06-22,1020.0
1992-06-23,965.0
1992-06-24,955.0
1992-06-25,905.0
1992-06-26,868.0
1992-06-27,773.0
1992-06-28,741.0
1992-06-29,795.0
1992-06-30,778.0
1992-07-01,683.0
1992-07-02,542.0
1992-07-03,519.0
1992-07-04,531.0
1992-07-05,561.0
1992-07-06,599.0
1992-07-07,564.0
1992-07-08,557.0
1992-07-09,563.0
1992-07-10,491.0
1992-07-11,454.0
1992-07-12,526.0
1992-07-13,461.0
1992-07-14,388.0
1992-07-15,364.0
1992-07-16,322.0
1992-07-17,304.0
1992-07-18,295.0
1992-07-19,273.0
1992-07-20,263.0
1992-07-21,259.0
1992-07-22,260.0
1992-07-23,372.0
1992-07-24,430.0
1992-07-25,857.0
1992-07-26,500.0
1992-07-27,383.0
1992-07-28,320.0
1992-07-29,286.0
1992-07-30,260.0
1992-07-31,239.0
1992-08-01,220.0
1992-08-02,205.0
1992-08-03,197.0
1992-08-04,194.0
1992-08-05,187.0
1992-08-06,205.0
1992-08-07,205.0
1992-08-08,199.0
1992-08-09,191.0
1992-08-10,191.0
1992-08-11,202.0
1992-08-12,190.0
1992-08-13,176.0
1992-08-14,168.0
1992-08-15,155.0
1992-08-16,155.0
1992-08-17,153.0
1992-08-18,142.0
1992-08-19,134.0
1992-08-20,128.0
1992-08-21,128.0
1992-08-22,166.0
1992-08-23,186.0
1992-08-24,339.0
1992-08-25,301.0
1992-08-26,319.0
1992-08-27,283.0
1992-08-28,258.0
1992-08-29,238.0
1992-08-30,220.0
1992-08-31,211.0
1992-09-01,205.0
1992-09-02,191.0
1992-09-03,176.0
1992-09-04,165.0
1992-09-05,157.0
1992-09-06,148.0
1992-09-07,141.0
1992-09-08,135.0
1992-09-09,130.0
1992-09-10,126.0
1992-09-11,120.0
1992-09-12,117.0
1992-09-13,114.0
1992-09-14,114.0
1992-09-15,141.0
1992-09-16,126.0
1992-09-17,121.0
1992-09-18,117.0
1992-09-19,146.0
1992-09-20,145.0
1992-09-21,137.0
1992-09-22,129.0
1992-09-23,126.0
1992-09-24,121.0
1992-09-25,118.0
1992-09-26,112.0
1992-09-27,110.0
1992-09-28,106.0
1992-09-29,105.0
1992-09-30,102.0
1992-10-01,100.0
1992-10-02,97.0
1992-10-03,93.0
1992-10-04,91.0
1992-10-05,89.0
1992-10-06,89.0
1992-10-07,90.0
1992-10-08,82.0
1992-10-09,84.0
1992-10-10,83.0
1992-10-11,82.0
1992-10-12,82.0
1992-10-13,83.0
1992-10-14,85.0
1992-10-15,83.0
1992-10-16,81.0
1992-10-17,81.0
1992-10-18,82.0
1992-10-19,80.0
1992-10-20,75.0
1992-10-21,78.0
1992-10-22,83.0
1992-10-23,79.0
1992-10-24,78.0
1992-10-25,79.0
1992-10-26,80.0
1992-10-27,79.0
1992-10-28,82.0
1992-10-29,83.0
1992-10-30,83.0
1992-10-31,85.0
1992-11-01,81.0
1992-11-02,85.0
1992-11-03,84.0
1992-11-04,82.0
1992-11-05,82.0
1992-11-06,82.0
1992-11-07,84.0
1992-11-08,86.0
1992-11-09,88.0
1992-11-10,88.0
1992-11-11,86.0
1992-11-12,80.0
1992-11-13,82.0
1992-11-14,82.0
1992-11-15,84.0
1992-11-16,88.0
1992-11-17,86.0
1992-11-18,88.0
1992-11-19,82.0
1992-11-20,82.0
1992-11-21,80.0
1992-11-22,74.0
1992-11-23,76.0
1992-11-24,74.0
1992-11-25,74.0
1992-11-26,66.0
1992-11-27,62.0
1992-11-28,64.0
1992-11-29,70.0
1992-11-30,70.0
1992-12-01,70.0
1992-12-02,70.0
1992-12-03,70.0
1992-12-04,70.0
1992-12-05,68.0
1992-12-06,64.0
1992-12-07,64.0
1992-12-08,64.0
1992-12-09,64.0
1992-12-10,64.0
1992-12-11,64.0
1992-12-12,64.0
1992-12-13,62.0
1992-12-14,58.0
1992-12-15,58.0
1992-12-16,58.0
1992-12-17,54.0
1992-12-18,54.0
1992-12-19,54.0
1992-12-20,52.0
1992-12-21,54.0
1992-12-22,56.0
1992-12-23,54.0
1992-12-24,52.0
1992-12-25,50.0
1992-12-26,50.0
1992-12-27,50.0
1992-12-28,52.0
1992-12-29,52.0
1992-12-30,52.0
1992-12-31,52.0
1993-01-01,52.0
1993-01-02,50.0
1993-01-03,48.0
1993-01-04,45.0
1993-01-05,48.0
1993-01-06,49.0
1993-01-07,50.0
1993-01-08,52.0
1993-01-09,52.0
1993-01-10,50.0
1993-01-11,50.0
1993-01-12,49.0
1993-01-13,48.0
1993-01-14,50.0
1993-01-15,52.0
1993-01-16,52.0
1993-01-17,54.0
1993-01-18,52.0
1993-01-19,52.0
1993-01-20,50.0
1993-01-21,48.0
1993-01-22,47.0
1993-01-23,46.0
1993-01-24,46.0
1993-01-25,47.0
1993-01-26,50.0
1993-01-27,48.0
1993-01-28,48.0
1993-01-29,50.0
1993-01-30,50.0
1993-01-31,50.0
1993-02-01,52.0
1993-02-02,50.0
1993-02-03,48.0
1993-02-04,46.0
1993-02-05,46.0
1993-02-06,46.0
1993-02-07,48.0
1993-02-08,50.0
1993-02-09,52.0
1993-02-10,50.0
1993-02-11,50.0
1993-02-12,50.0
1993-02-13,47.0
1993-02-14,46.0
1993-02-15,48.0
1993-02-16,48.0
1993-02-17,47.0
1993-02-18,46.0
1993-02-19,52.0
1993-02-20,62.0
1993-02-21,54.0
1993-02-22,48.0
1993-02-23,46.0
1993-02-24,46.0
1993-02-25,48.0
1993-02-26,48.0
1993-02-27,48.0
1993-02-28,50.0
1993-03-01,50.0
1993-03-02,50.0
1993-03-03,48.0
1993-03-04,48.0
1993-03-05,49.0
1993-03-06,52.0
1993-03-07,56.0
1993-03-08,60.0
1993-03-09,68.0
1993-03-10,66.0
1993-03-11,62.0
1993-03-12,56.0
1993-03-13,52.0
1993-03-14,54.0
1993-03-15,56.0
1993-03-16,58.0
1993-03-17,58.0
1993-03-18,70.0
1993-03-19,68.0
1993-03-20,68.0
1993-03-21,70.0
1993-03-22,68.0
1993-03-23,68.0
1993-03-24,74.0
1993-03-25,78.0
1993-03-26,84.0
1993-03-27,78.0
1993-03-28,74.0
1993-03-29,70.0
1993-03-30,70.0
1993-03-31,66.0
1993-04-01,65.0
1993-04-02,63.0
1993-04-03,62.0
1993-04-04,64.0
1993-04-05,67.0
1993-04-06,66.0
1993-04-07,64.0
1993-04-08,65.0
1993-04-09,66.0
1993-04-10,68.0
1993-04-11,72.0
1993-04-12,74.0
1993-04-13,75.0
1993-04-14,78.0
1993-04-15,81.0
1993-04-16,88.0
1993-04-17,96.0
1993-04-18,105.0
1993-04-19,95.0
1993-04-20,95.0
1993-04-21,108.0
1993-04-22,141.0
1993-04-23,172.0
1993-04-24,166.0
1993-04-25,144.0
1993-04-26,173.0
1993-04-27,237.0
1993-04-28,296.0
1993-04-29,353.0
1993-04-30,358.0
1993-05-01,296.0
1993-05-02,270.0
1993-05-03,285.0
1993-05-04,325.0
1993-05-05,330.0
1993-05-06,268.0
1993-05-07,245.0
1993-05-08,215.0
1993-05-09,194.0
1993-05-10,201.0
1993-05-11,271.0
1993-05-12,412.0
1993-05-13,596.0
1993-05-14,738.0
1993-05-15,840.0
1993-05-16,814.0
1993-05-17,783.0
1993-05-18,787.0
1993-05-19,898.0
1993-05-20,1030.0
1993-05-21,1330.0
1993-05-22,1350.0
1993-05-23,1080.0
1993-05-24,1130.0
1993-05-25,1360.0
1993-05-26,1610.0
1993-05-27,1740.0
1993-05-28,1610.0
1993-05-29,1450.0
1993-05-30,1580.0
1993-05-31,1830.0
1993-06-01,1870.0
1993-06-02,1710.0
1993-06-03,1460.0
1993-06-04,1140.0
1993-06-05,1050.0
1993-06-06,1060.0
1993-06-07,939.0
1993-06-08,799.0
1993-06-09,713.0
1993-06-10,708.0
1993-06-11,900.0
1993-06-12,1270.0
1993-06-13,1780.0
1993-06-14,2060.0
1993-06-15,2090.0
1993-06-16,2160.0
1993-06-17,1930.0
1993-06-18,1440.0
1993-06-19,1380.0
1993-06-20,1660.0
1993-06-21,1810.0
1993-06-22,1820.0
1993-06-23,1830.0
1993-06-24,1690.0
1993-06-25,1570.0
1993-06-26,1590.0
1993-06-27,1530.0
1993-06-28,1440.0
1993-06-29,1500.0
1993-06-30,1510.0
1993-07-01,1370.0
1993-07-02,1340.0
1993-07-03,1270.0
1993-07-04,1020.0
1993-07-05,810.0
1993-07-06,856.0
1993-07-07,927.0
1993-07-08,916.0
1993-07-09,853.0
1993-07-10,800.0
1993-07-11,779.0
1993-07-12,774.0
1993-07-13,728.0
1993-07-14,690.0
1993-07-15,661.0
1993-07-16,612.0
1993-07-17,552.0
1993-07-18,533.0
1993-07-19,487.0
1993-07-20,464.0
1993-07-21,452.0
1993-07-22,424.0
1993-07-23,406.0
1993-07-24,386.0
1993-07-25,361.0
1993-07-26,372.0
1993-07-27,360.0
1993-07-28,346.0
1993-07-29,343.0
1993-07-30,372.0
1993-07-31,346.0
1993-08-01,322.0
1993-08-02,308.0
1993-08-03,290.0
1993-08-04,275.0
1993-08-05,316.0
1993-08-06,281.0
1993-08-07,264.0
1993-08-08,274.0
1993-08-09,277.0
1993-08-10,280.0
1993-08-11,267.0
1993-08-12,243.0
1993-08-13,241.0
1993-08-14,265.0
1993-08-15,247.0
1993-08-16,222.0
1993-08-17,207.0
1993-08-18,194.0
1993-08-19,195.0
1993-08-20,197.0
1993-08-21,238.0
1993-08-22,239.0
1993-08-23,209.0
1993-08-24,192.0
1993-08-25,180.0
1993-08-26,206.0
1993-08-27,223.0
1993-08-28,381.0
1993-08-29,523.0
1993-08-30,459.0
1993-08-31,401.0
1993-09-01,370.0
1993-09-02,330.0
1993-09-03,291.0
1993-09-04,263.0
1993-09-05,244.0
1993-09-06,232.0
1993-09-07,225.0
1993-09-08,208.0
1993-09-09,197.0
1993-09-10,191.0
1993-09-11,180.0
1993-09-12,173.0
1993-09-13,204.0
1993-09-14,186.0
1993-09-15,184.0
1993-09-16,182.0
1993-09-17,173.0
1993-09-18,170.0
1993-09-19,166.0
1993-09-20,157.0
1993-09-21,149.0
1993-09-22,142.0
1993-09-23,138.0
1993-09-24,133.0
1993-09-25,130.0
1993-09-26,127.0
1993-09-27,127.0
1993-09-28,124.0
1993-09-29,121.0
1993-09-30,119.0
1993-10-01,108.0
1993-10-02,107.0
1993-10-03,105.0
1993-10-04,102.0
1993-10-05,101.0
1993-10-06,101.0
1993-10-07,111.0
1993-10-08,108.0
1993-10-09,112.0
1993-10-10,113.0
1993-10-11,109.0
1993-10-12,115.0
1993-10-13,113.0
1993-10-14,112.0
1993-10-15,109.0
1993-10-16,112.0
1993-10-17,115.0
1993-10-18,113.0
1993-10-19,104.0
1993-10-20,102.0
1993-10-21,99.0
1993-10-22,99.0
1993-10-23,96.0
1993-10-24,94.0
1993-10-25,94.0
1993-10-26,95.0
1993-10-27,85.0
1993-10-28,87.0
1993-10-29,89.0
1993-10-30,83.0
1993-10-31,84.0
1993-11-01,86.0
1993-11-02,84.0
1993-11-03,83.0
1993-11-04,84.0
1993-11-05,80.0
1993-11-06,80.0
1993-11-07,78.0
1993-11-08,78.0
1993-11-09,76.0
1993-11-10,76.0
1993-11-11,80.0
1993-11-12,83.0
1993-11-13,77.0
1993-11-14,77.0
1993-11-15,78.0
1993-11-16,78.0
1993-11-17,80.0
1993-11-18,77.0
1993-11-19,79.0
1993-11-20,80.0
1993-11-21,98.0
1993-11-22,81.0
1993-11-23,81.0
1993-11-24,81.0
1993-11-25,75.0
1993-11-26,68.0
1993-11-27,66.0
1993-11-28,68.0
1993-11-29,71.0
1993-11-30,74.0
1993-12-01,76.0
1993-12-02,74.0
1993-12-03,69.0
1993-12-04,66.0
1993-12-05,65.0
1993-12-06,64.0
1993-12-07,64.0
1993-12-08,66.0
1993-12-09,68.0
1993-12-10,70.0
1993-12-11,68.0
1993-12-12,70.0
1993-12-13,68.0
1993-12-14,64.0
1993-12-15,62.0
1993-12-16,64.0
1993-12-17,63.0
1993-12-18,60.0
1993-12-19,60.0
1993-12-20,62.0
1993-12-21,60.0
1993-12-22,58.0
1993-12-23,58.0
1993-12-24,60.0
1993-12-25,60.0
1993-12-26,58.0
1993-12-27,60.0
1993-12-28,64.0
1993-12-29,62.0
1993-12-30,57.0
1993-12-31,58.0
1994-01-01,59.0
1994-01-02,62.0
1994-01-03,60.0
1994-01-04,62.0
1994-01-05,62.0
1994-01-06,66.0
1994-01-07,68.0
1994-01-08,68.0
1994-01-09,68.0
1994-01-10,70.0
1994-01-11,68.0
1994-01-12,68.0
1994-01-13,70.0
1994-01-14,70.0
1994-01-15,70.0
1994-01-16,70.0
1994-01-17,68.0
1994-01-18,70.0
1994-01-19,70.0
1994-01-20,68.0
1994-01-21,68.0
1994-01-22,68.0
1994-01-23,68.0
1994-01-24,68.0
1994-01-25,64.0
1994-01-26,62.0
1994-01-27,62.0
1994-01-28,60.0
1994-01-29,58.0
1994-01-30,56.0
1994-01-31,72.0
1994-02-01,92.0
1994-02-02,74.0
1994-02-03,58.0
1994-02-04,60.0
1994-02-05,58.0
1994-02-06,56.0
1994-02-07,56.0
1994-02-08,58.0
1994-02-09,56.0
1994-02-10,55.0
1994-02-11,55.0
1994-02-12,54.0
1994-02-13,52.0
1994-02-14,52.0
1994-02-15,54.0
1994-02-16,54.0
1994-02-17,57.0
1994-02-18,60.0
1994-02-19,58.0
1994-02-20,55.0
1994-02-21,54.0
1994-02-22,53.0
1994-02-23,52.0
1994-02-24,53.0
1994-02-25,54.0
1994-02-26,55.0
1994-02-27,57.0
1994-02-28,61.0
1994-03-01,61.0
1994-03-02,60.0
1994-03-03,62.0
1994-03-04,64.0
1994-03-05,66.0
1994-03-06,67.0
1994-03-07,67.0
1994-03-08,66.0
1994-03-09,65.0
1994-03-10,63.0
1994-03-11,62.0
1994-03-12,62.0
1994-03-13,63.0
1994-03-14,64.0
1994-03-15,67.0
1994-03-16,73.0
1994-03-17,77.0
1994-03-18,82.0
1994-03-19,86.0
1994-03-20,90.0
1994-03-21,91.0
1994-03-22,90.0
1994-03-23,92.0
1994-03-24,90.0
1994-03-25,88.0
1994-03-26,85.0
1994-03-27,82.0
1994-03-28,80.0
1994-03-29,80.0
1994-03-30,78.0
1994-03-31,80.0
1994-04-01,82.0
1994-04-02,86.0
1994-04-03,90.0
1994-04-04,95.0
1994-04-05,100.0
1994-04-06,97.0
1994-04-07,94.0
1994-04-08,94.0
1994-04-09,94.0
1994-04-10,96.0
1994-04-11,92.0
1994-04-12,87.0
1994-04-13,90.0
1994-04-14,110.0
1994-04-15,125.0
1994-04-16,135.0
1994-04-17,165.0
1994-04-18,210.0
1994-04-19,240.0
1994-04-20,270.0
1994-04-21,300.0
1994-04-22,330.0
1994-04-23,390.0
1994-04-24,380.0
1994-04-25,360.0
1994-04-26,300.0
1994-04-27,270.0
1994-04-28,245.0
1994-04-29,230.0
1994-04-30,215.0
1994-05-01,215.0
1994-05-02,215.0
1994-05-03,220.0
1994-05-04,235.0
1994-05-05,260.0
1994-05-06,300.0
1994-05-07,370.0
1994-05-08,347.0
1994-05-09,358.0
1994-05-10,283.0
1994-05-11,285.0
1994-05-12,394.0
1994-05-13,499.0
1994-05-14,517.0
1994-05-15,624.0
1994-05-16,654.0
1994-05-17,724.0
1994-05-18,717.0
1994-05-19,757.0
1994-05-20,742.0
1994-05-21,688.0
1994-05-22,791.0
1994-05-23,913.0
1994-05-24,933.0
1994-05-25,908.0
1994-05-26,697.0
1994-05-27,771.0
1994-05-28,1010.0
1994-05-29,1260.0
1994-05-30,1530.0
1994-05-31,1670.0
1994-06-01,1750.0
1994-06-02,1720.0
1994-06-03,1820.0
1994-06-04,1900.0
1994-06-05,1700.0
1994-06-06,1530.0
1994-06-07,1410.0
1994-06-08,1330.0
1994-06-09,1320.0
1994-06-10,1330.0
1994-06-11,1270.0
1994-06-12,1150.0
1994-06-13,1250.0
1994-06-14,1240.0
1994-06-15,1150.0
1994-06-16,1070.0
1994-06-17,1030.0
1994-06-18,999.0
1994-06-19,982.0
1994-06-20,956.0
1994-06-21,1020.0
1994-06-22,1050.0
1994-06-23,937.0
1994-06-24,854.0
1994-06-25,796.0
1994-06-26,730.0
1994-06-27,677.0
1994-06-28,605.0
1994-06-29,544.0
1994-06-30,498.0
1994-07-01,461.0
1994-07-02,427.0
1994-07-03,388.0
1994-07-04,354.0
1994-07-05,331.0
1994-07-06,309.0
1994-07-07,284.0
1994-07-08,265.0
1994-07-09,254.0
1994-07-10,247.0
1994-07-11,231.0
1994-07-12,223.0
1994-07-13,209.0
1994-07-14,199.0
1994-07-15,191.0
1994-07-16,183.0
1994-07-17,175.0
1994-07-18,173.0
1994-07-19,192.0
1994-07-20,184.0
1994-07-21,171.0
1994-07-22,166.0
1994-07-23,159.0
1994-07-24,171.0
1994-07-25,160.0
1994-07-26,155.0
1994-07-27,148.0
1994-07-28,143.0
1994-07-29,139.0
1994-07-30,135.0
1994-07-31,133.0
1994-08-01,133.0
1994-08-02,141.0
1994-08-03,128.0
1994-08-04,122.0
1994-08-05,121.0
1994-08-06,130.0
1994-08-07,120.0
1994-08-08,118.0
1994-08-09,133.0
1994-08-10,126.0
1994-08-11,125.0
1994-08-12,123.0
1994-08-13,122.0
1994-08-14,128.0
1994-08-15,131.0
1994-08-16,118.0
1994-08-17,113.0
1994-08-18,111.0
1994-08-19,124.0
1994-08-20,121.0
1994-08-21,125.0
1994-08-22,120.0
1994-08-23,113.0
1994-08-24,110.0
1994-08-25,110.0
1994-08-26,106.0
1994-08-27,101.0
1994-08-28,107.0
1994-08-29,112.0
1994-08-30,105.0
1994-08-31,104.0
1994-09-01,104.0
1994-09-02,107.0
1994-09-03,197.0
1994-09-04,184.0
1994-09-05,150.0
1994-09-06,135.0
1994-09-07,127.0
1994-09-08,119.0
1994-09-09,114.0
1994-09-10,110.0
1994-09-11,108.0
1994-09-12,175.0
1994-09-13,303.0
1994-09-14,418.0
1994-09-15,299.0
1994-09-16,245.0
1994-09-17,218.0
1994-09-18,203.0
1994-09-19,195.0
1994-09-20,233.0
1994-09-21,235.0
1994-09-22,213.0
1994-09-23,197.0
1994-09-24,182.0
1994-09-25,168.0
1994-09-26,159.0
1994-09-27,151.0
1994-09-28,143.0
1994-09-29,137.0
1994-09-30,186.0
1994-10-01,219.0
1994-10-02,196.0
1994-10-03,180.0
1994-10-04,193.0
1994-10-05,202.0
1994-10-06,198.0
1994-10-07,191.0
1994-10-08,183.0
1994-10-09,174.0
1994-10-10,171.0
1994-10-11,167.0
1994-10-12,162.0
1994-10-13,158.0
1994-10-14,159.0
1994-10-15,158.0
1994-10-16,154.0
1994-10-17,153.0
1994-10-18,151.0
1994-10-19,149.0
1994-10-20,142.0
1994-10-21,141.0
1994-10-22,137.0
1994-10-23,138.0
1994-10-24,137.0
1994-10-25,132.0
1994-10-26,129.0
1994-10-27,126.0
1994-10-28,125.0
1994-10-29,122.0
1994-10-30,123.0
1994-10-31,109.0
1994-11-01,111.0
1994-11-02,110.0
1994-11-03,109.0
1994-11-04,101.0
1994-11-05,103.0
1994-11-06,107.0
1994-11-07,108.0
1994-11-08,112.0
1994-11-09,107.0
1994-11-10,101.0
1994-11-11,103.0
1994-11-12,109.0
1994-11-13,103.0
1994-11-14,102.0
1994-11-15,96.0
1994-11-16,97.0
1994-11-17,100.0
1994-11-18,100.0
1994-11-19,101.0
1994-11-20,99.0
1994-11-21,98.0
1994-11-22,93.0
1994-11-23,90.0
1994-11-24,87.0
1994-11-25,88.0
1994-11-26,89.0
1994-11-27,88.0
1994-11-28,85.0
1994-11-29,88.0
1994-11-30,87.0
1994-12-01,91.0
1994-12-02,90.0
1994-12-03,88.0
1994-12-04,96.0
1994-12-05,93.0
1994-12-06,93.0
1994-12-07,90.0
1994-12-08,89.0
1994-12-09,84.0
1994-12-10,74.0
1994-12-11,68.0
1994-12-12,69.0
1994-12-13,76.0
1994-12-14,76.0
1994-12-15,75.0
1994-12-16,77.0
1994-12-17,76.0
1994-12-18,76.0
1994-12-19,77.0
1994-12-20,79.0
1994-12-21,76.0
1994-12-22,76.0
1994-12-23,77.0
1994-12-24,78.0
1994-12-25,78.0
1994-12-26,78.0
1994-12-27,77.0
1994-12-28,76.0
1994-12-29,78.0
1994-12-30,78.0
1994-12-31,78.0
1995-01-01,77.0
1995-01-02,73.0
1995-01-03,80.0
1995-01-04,75.0
1995-01-05,75.0
1995-01-06,77.0
1995-01-07,76.0
1995-01-08,77.0
1995-01-09,78.0
1995-01-10,80.0
1995-01-11,81.0
1995-01-12,82.0
1995-01-13,81.0
1995-01-14,82.0
1995-01-15,80.0
1995-01-16,78.0
1995-01-17,76.0
1995-01-18,74.0
1995-01-19,84.0
1995-01-20,85.0
1995-01-21,78.0
1995-01-22,79.0
1995-01-23,84.0
1995-01-24,81.0
1995-01-25,78.0
1995-01-26,78.0
1995-01-27,79.0
1995-01-28,78.0
1995-01-29,78.0
1995-01-30,77.0
1995-01-31,75.0
1995-02-01,79.0
1995-02-02,82.0
1995-02-03,82.0
1995-02-04,81.0
1995-02-05,82.0
1995-02-06,84.0
1995-02-07,86.0
1995-02-08,85.0
1995-02-09,84.0
1995-02-10,82.0
1995-02-11,81.0
1995-02-12,79.0
1995-02-13,78.0
1995-02-14,83.0
1995-02-15,80.0
1995-02-16,75.0
1995-02-17,74.0
1995-02-18,75.0
1995-02-19,77.0
1995-02-20,79.0
1995-02-21,90.0
1995-02-22,96.0
1995-02-23,98.0
1995-02-24,102.0
1995-02-25,104.0
1995-02-26,103.0
1995-02-27,100.0
1995-02-28,97.0
1995-03-01,97.0
1995-03-02,97.0
1995-03-03,97.0
1995-03-04,99.0
1995-03-05,97.0
1995-03-06,98.0
1995-03-07,92.0
1995-03-08,87.0
1995-03-09,89.0
1995-03-10,104.0
1995-03-11,124.0
1995-03-12,132.0
1995-03-13,112.0
1995-03-14,103.0
1995-03-15,111.0
1995-03-16,120.0
1995-03-17,130.0
1995-03-18,120.0
1995-03-19,120.0
1995-03-20,118.0
1995-03-21,110.0
1995-03-22,116.0
1995-03-23,113.0
1995-03-24,111.0
1995-03-25,104.0
1995-03-26,98.0
1995-03-27,96.0
1995-03-28,91.0
1995-03-29,89.0
1995-03-30,90.0
1995-03-31,87.0
1995-04-01,86.0
1995-04-02,86.0
1995-04-03,85.0
1995-04-04,91.0
1995-04-05,107.0
1995-04-06,126.0
1995-04-07,145.0
1995-04-08,168.0
1995-04-09,180.0
1995-04-10,154.0
1995-04-11,136.0
1995-04-12,129.0
1995-04-13,139.0
1995-04-14,153.0
1995-04-15,153.0
1995-04-16,139.0
1995-04-17,135.0
1995-04-18,126.0
1995-04-19,123.0
1995-04-20,115.0
1995-04-21,108.0
1995-04-22,104.0
1995-04-23,101.0
1995-04-24,99.0
1995-04-25,101.0
1995-04-26,106.0
1995-04-27,115.0
1995-04-28,125.0
1995-04-29,140.0
1995-04-30,160.0
1995-05-01,143.0
1995-05-02,148.0
1995-05-03,142.0
1995-05-04,148.0
1995-05-05,163.0
1995-05-06,149.0
1995-05-07,146.0
1995-05-08,138.0
1995-05-09,135.0
1995-05-10,139.0
1995-05-11,147.0
1995-05-12,157.0
1995-05-13,149.0
1995-05-14,163.0
1995-05-15,253.0
1995-05-16,345.0
1995-05-17,323.0
1995-05-18,295.0
1995-05-19,356.0
1995-05-20,449.0
1995-05-21,560.0
1995-05-22,702.0
1995-05-23,715.0
1995-05-24,619.0
1995-05-25,509.0
1995-05-26,419.0
1995-05-27,386.0
1995-05-28,363.0
1995-05-29,343.0
1995-05-30,316.0
1995-05-31,323.0
1995-06-01,458.0
1995-06-02,655.0
1995-06-03,736.0
1995-06-04,749.0
1995-06-05,861.0
1995-06-06,1090.0
1995-06-07,959.0
1995-06-08,828.0
1995-06-09,785.0
1995-06-10,811.0
1995-06-11,1010.0
1995-06-12,1400.0
1995-06-13,1640.0
1995-06-14,1880.0
1995-06-15,2070.0
1995-06-16,2040.0
1995-06-17,2000.0
1995-06-18,2000.0
1995-06-19,1800.0
1995-06-20,2000.0
1995-06-21,2120.0
1995-06-22,2140.0
1995-06-23,2180.0
1995-06-24,2210.0
1995-06-25,2270.0
1995-06-26,2300.0
1995-06-27,2120.0
1995-06-28,1760.0
1995-06-29,1850.0
1995-06-30,1920.0
1995-07-01,1910.0
1995-07-02,1610.0
1995-07-03,1480.0
1995-07-04,1120.0
1995-07-05,1030.0
1995-07-06,1320.0
1995-07-07,1660.0
1995-07-08,1770.0
1995-07-09,2110.0
1995-07-10,2350.0
1995-07-11,2240.0
1995-07-12,2140.0
1995-07-13,1850.0
1995-07-14,1600.0
1995-07-15,1470.0
1995-07-16,1520.0
1995-07-17,1330.0
1995-07-18,1230.0
1995-07-19,1350.0
1995-07-20,1380.0
1995-07-21,1240.0
1995-07-22,1120.0
1995-07-23,1010.0
1995-07-24,935.0
1995-07-25,972.0
1995-07-26,968.0
1995-07-27,939.0
1995-07-28,925.0
1995-07-29,922.0
1995-07-30,858.0
1995-07-31,809.0
1995-08-01,776.0
1995-08-02,735.0
1995-08-03,676.0
1995-08-04,643.0
1995-08-05,645.0
1995-08-06,615.0
1995-08-07,583.0
1995-08-08,590.0
1995-08-09,588.0
1995-08-10,577.0
1995-08-11,608.0
1995-08-12,588.0
1995-08-13,568.0
1995-08-14,518.0
1995-08-15,471.0
1995-08-16,429.0
1995-08-17,419.0
1995-08-18,419.0
1995-08-19,422.0
1995-08-20,539.0
1995-08-21,455.0
1995-08-22,471.0
1995-08-23,470.0
1995-08-24,428.0
1995-08-25,425.0
1995-08-26,454.0
1995-08-27,480.0
1995-08-28,434.0
1995-08-29,397.0
1995-08-30,360.0
1995-08-31,324.0
1995-09-01,301.0
1995-09-02,288.0
1995-09-03,274.0
1995-09-04,254.0
1995-09-05,240.0
1995-09-06,248.0
1995-09-07,260.0
1995-09-08,288.0
1995-09-09,292.0
1995-09-10,268.0
1995-09-11,246.0
1995-09-12,227.0
1995-09-13,213.0